TIANWANG 1B (TW-1B)
1 40927U 15051C   18186.12777542  .00004500  00000-0  87490-4 0  9994
2 40927  97.1894 228.2028 0008508 214.1856 208.5665 15.48091133155990
TIANWANG 1A (TW-1A)
1 40928U 15051D   18185.57501222  .00001432  00000-0  39372-4 0  9990
2 40928  97.1834 219.2194 0009995 257.9632 226.5258 15.38802382155451
LAPAN A2
1 40931U 15052B   18185.01202699 +.00000642 +00000-0 +28738-6 0  9998
2 40931 005.9993 030.1149 0013220 247.7431 112.1344 14.76578296149496
LQSAT
1 40958U 15057A   18185.75880492  .00000020  00000-0  10897-4 0  9991
2 40958  97.9390 258.5122 0016869 281.9619  77.9700 14.73036881147436
CHUBUSAT 2
1 41338U 16012B   18185.41580665 +.00000206 +00000-0 +92950-5 0  9995
2 41338 031.0019 204.1870 0013872 243.9230 115.9977 14.99993026130422
CHUBUSAT 3
1 41339U 16012C   18186.15931420  .00000248  00000-0  12491-4 0  9994
2 41339  31.0101 198.0336 0013675 259.4850 100.4269 15.00180367130527
OUFTI-1
1 41458U 16025C   18185.86098807  .00001758  00000-0  94427-4 0  9996
2 41458  98.1344 249.6532 0170725  88.5973 273.4771 15.04740724120093
E-STAR-2
1 41459U 16025D   18185.73803414  .00000742  00000-0  42619-4 0  9999
2 41459  98.1344 249.3574 0171932  89.6185 272.4730 15.04459179120067
AAUSAT 4
1 41460U 16025E   18185.76618443  .00001559  00000-0  83558-4 0  9994
2 41460  98.1282 249.9148 0163280  85.4283 276.5530 15.05933158120139
NUSAT 1
1 41557U 16033B   18185.78807329  .00000822  00000-0  32692-4 0  9990
2 41557  97.4377 269.9709 0016181 100.4239 259.8825 15.28055448116840
BEESAT 4
1 41619U 16040W   18185.22676914  .00000857  00000-0  40321-4 0  9996
2 41619  97.4138 248.1374 0012094 162.7714 197.3935 15.22175589100685
PRATHAM
1 41783U 16059A   18185.23652500 +.00000015 +00000-0 +12170-4 0  9991
2 41783 098.1162 246.5200 0034496 044.0032 316.3907 14.62930182094457
ALSAT 1N
1 41789U 16059G   18185.72623272  .00000087  00000-0  25645-4 0  9995
2 41789  98.1177 248.2597 0029134  34.7475 325.5619 14.64164035 94581
NAYIF 1
1 42017U 17008BX  18185.42486820 +.00000865 +00000-0 +38123-4 0  9997
2 42017 097.4470 250.3795 0005393 333.4392 026.6568 15.24499964076699
LILACSAT-1
1 42725U 98067ME  18185.68072396  .00013394  00000-0  11283-3 0  9992
2 42725  51.6350 268.8256 0004726 309.0963  50.9614 15.70184235 63266
MAX VALIER SAT
1 42778U 17036P   18185.61078045 +.00000570 +00000-0 +28486-4 0  9993
2 42778 097.4020 245.0338 0012969 016.9678 343.1989 15.21349454057154
